This is the latest recevied weather packets stored in our database for station/object IZ0VWB-3. If no packets are shown the sender has not sent any weather packets the latest 10 day(s).
| Time | Temp. | Humidity | Pressure | Rain* | Wind** | Luminosity | Snow |
|---|---|---|---|---|---|---|---|
| 1777679310 | 8.89° C | 43% | 1011.8 hPa | 0 mm | - | - | - |
| 1777678710 | 8.89° C | 43% | 1011.9 hPa | 0 mm | - | - | - |
| 1777678108 | 9.44° C | 43% | 1011.8 hPa | 0 mm | - | - | - |
| 1777677509 | 8.89° C | 43% | 1011.8 hPa | 0 mm | - | - | - |
| 1777676909 | 8.89° C | 42% | 1012 hPa | 0 mm | - | - | - |
| 1777676310 | 8.89° C | 42% | 1011.9 hPa | 0 mm | - | - | - |
| 1777675708 | 8.89° C | 42% | 1012 hPa | 0 mm | - | - | - |
| 1777675109 | 9.44° C | 43% | 1011.9 hPa | 0 mm | - | - | - |
| 1777674510 | 9.44° C | 41% | 1011.8 hPa | 0 mm | - | - | - |
| 1777673909 | 9.44° C | 41% | 1011.8 hPa | 0 mm | - | - | - |
| 1777673309 | 9.44° C | 42% | 1011.6 hPa | 0 mm | - | - | - |
| 1777672708 | 9.44° C | 42% | 1011.8 hPa | 0 mm | - | - | - |
| 1777672108 | 9.44° C | 42% | 1011.7 hPa | 0 mm | - | - | - |
| 1777671509 | 9.44° C | 42% | 1011.7 hPa | 0 mm | - | - | - |
| 1777670907 | 10° C | 42% | 1011.5 hPa | 0 mm | - | - | - |
| 1777670307 | 10° C | 42% | 1011.5 hPa | 0 mm | - | - | - |
| 1777669712 | 10° C | 42% | 1011.4 hPa | 0 mm | - | - | - |
| 1777669113 | 10.56° C | 40% | 1011.1 hPa | 0 mm | - | - | - |
| 1777668513 | 10.56° C | 40% | 1011 hPa | 0 mm | - | - | - |
| 1777667914 | 11.11° C | 39% | 1011 hPa | 0 mm | - | - | - |
| 1777667312 | 11.11° C | 39% | 1010.9 hPa | 0 mm | - | - | - |
| 1777666713 | 11.67° C | 39% | 1010.7 hPa | 0 mm | - | - | - |
| 1777666112 | 11.67° C | 38% | 1010.8 hPa | 0 mm | - | - | - |
| 1777665512 | 12.22° C | 38% | 1010.7 hPa | 0 mm | - | - | - |
| 1777664913 | 11.67° C | 39% | 1010.6 hPa | 0 mm | - | - | - |
* Rain latest hour (hover to see other rain measurements)
** Current wind speed in m/s (hover to see current wind gust speed)